Time,TemperatureF,DewpointF,PressureIn,WindDirection,WindDirectionDegrees,WindSpeedMPH,WindSpeedGustMPH,Humidity,HourlyPrecipIn,Conditions,Clouds,dailyrainin,SolarRadiationWatts/m^2,SoftwareType,DateUTC
2013-10-27 00:23:00,32.0,28.0,-100.00,WSW,240,17.0,19.0,85,0.00,,,0.00,0.000000,,2013-10-27 05:23:00,
2013-10-27 00:34:00,32.0,28.0,-100.00,WSW,240,17.0,19.0,85,0.00,,,0.00,0.000000,,2013-10-27 05:34:00,
2013-10-27 00:43:00,32.0,28.0,-100.00,WSW,240,17.0,19.0,85,0.00,,,0.00,0.000000,,2013-10-27 05:43:00,
2013-10-27 00:52:00,32.0,28.0,-100.00,WSW,240,17.0,19.0,85,0.00,,,0.00,0.000000,,2013-10-27 05:52:00,
2013-10-27 01:22:00,33.0,28.0,-100.00,SW,233,16.0,20.0,82,0.00,,,0.00,0.000000,,2013-10-27 06:22:00,
2013-10-27 01:32:00,33.0,28.0,-100.00,SW,233,16.0,20.0,82,0.00,,,0.00,0.000000,,2013-10-27 06:32:00,
2013-10-27 01:42:00,33.0,28.0,-100.00,SW,233,16.0,20.0,82,0.00,,,0.00,0.000000,,2013-10-27 06:42:00,
2013-10-27 01:53:00,33.0,28.0,-100.00,SW,233,16.0,20.0,82,0.00,,,0.00,0.000000,,2013-10-27 06:53:00,
2013-10-27 02:22:00,34.0,28.0,-100.00,SW,233,16.0,21.0,79,0.00,,,0.00,0.000000,,2013-10-27 07:22:00,
2013-10-27 02:32:00,34.0,28.0,-100.00,SW,233,16.0,21.0,79,0.00,,,0.00,0.000000,,2013-10-27 07:32:00,
2013-10-27 02:42:00,34.0,28.0,-100.00,SW,233,16.0,21.0,79,0.00,,,0.00,0.000000,,2013-10-27 07:42:00,
2013-10-27 02:52:00,34.0,28.0,-100.00,SW,233,16.0,21.0,79,0.00,,,0.00,0.000000,,2013-10-27 07:52:00,
2013-10-27 03:22:00,34.0,28.0,-100.00,SW,229,15.0,19.0,80,0.00,,,0.00,0.000000,,2013-10-27 08:22:00,
2013-10-27 03:32:00,34.0,28.0,-100.00,SW,229,15.0,19.0,80,0.00,,,0.00,0.000000,,2013-10-27 08:32:00,
2013-10-27 03:42:00,34.0,28.0,-100.00,SW,229,15.0,19.0,80,0.00,,,0.00,0.000000,,2013-10-27 08:42:00,
2013-10-27 03:52:00,34.0,28.0,-100.00,SW,229,15.0,19.0,80,0.00,,,0.00,0.000000,,2013-10-27 08:52:00,
2013-10-27 04:21:00,37.0,28.0,-100.00,SW,229,18.0,22.0,71,0.00,,,0.00,0.000000,,2013-10-27 09:21:00,
2013-10-27 04:33:00,37.0,28.0,-100.00,SW,229,18.0,22.0,71,0.00,,,0.00,0.000000,,2013-10-27 09:33:00,
2013-10-27 04:43:00,37.0,28.0,-100.00,SW,229,18.0,22.0,71,0.00,,,0.00,0.000000,,2013-10-27 09:43:00,
2013-10-27 04:53:00,37.0,28.0,-100.00,SW,229,18.0,22.0,71,0.00,,,0.00,0.000000,,2013-10-27 09:53:00,
2013-10-27 05:23:00,37.0,28.0,-100.00,SW,218,15.0,21.0,70,0.00,,,0.00,0.000000,,2013-10-27 10:23:00,
2013-10-27 05:33:00,37.0,28.0,-100.00,SW,218,15.0,21.0,70,0.00,,,0.00,0.000000,,2013-10-27 10:33:00,
2013-10-27 05:42:00,37.0,28.0,-100.00,SW,218,15.0,21.0,70,0.00,,,0.00,0.000000,,2013-10-27 10:42:00,
2013-10-27 05:53:00,37.0,28.0,-100.00,SW,218,15.0,21.0,70,0.00,,,0.00,0.000000,,2013-10-27 10:53:00,
2013-10-27 06:22:00,34.0,27.0,-100.00,SW,222,11.0,16.0,75,0.00,,,0.00,0.000000,,2013-10-27 11:22:00,
2013-10-27 06:33:00,34.0,27.0,-100.00,SW,222,11.0,16.0,75,0.00,,,0.00,0.000000,,2013-10-27 11:33:00,
2013-10-27 06:42:00,34.0,27.0,-100.00,SW,222,11.0,16.0,75,0.00,,,0.00,0.000000,,2013-10-27 11:42:00,
2013-10-27 06:52:00,34.0,27.0,-100.00,SW,222,11.0,16.0,75,0.00,,,0.00,0.000000,,2013-10-27 11:52:00,
2013-10-27 07:22:00,38.0,29.0,-100.00,WSW,250,12.0,19.0,70,0.00,,,0.00,0.000000,,2013-10-27 12:22:00,
2013-10-27 07:32:00,38.0,29.0,-100.00,WSW,250,12.0,19.0,70,0.00,,,0.00,0.000000,,2013-10-27 12:32:00,
2013-10-27 07:42:00,38.0,29.0,-100.00,WSW,250,12.0,19.0,70,0.00,,,0.00,0.000000,,2013-10-27 12:42:00,
2013-10-27 07:52:00,38.0,29.0,-100.00,WSW,250,12.0,19.0,70,0.00,,,0.00,0.000000,,2013-10-27 12:52:00,
2013-10-27 08:21:00,37.0,25.0,-100.00,West,274,14.0,17.0,61,0.00,,,0.00,0.000000,,2013-10-27 13:21:00,
2013-10-27 08:32:00,37.0,25.0,-100.00,West,274,14.0,17.0,61,0.00,,,0.00,0.000000,,2013-10-27 13:32:00,
2013-10-27 08:42:00,37.0,25.0,-100.00,West,274,14.0,17.0,61,0.00,,,0.00,0.000000,,2013-10-27 13:42:00,
2013-10-27 08:52:00,37.0,25.0,-100.00,West,274,14.0,17.0,61,0.00,,,0.00,0.000000,,2013-10-27 13:52:00,
2013-10-27 09:22:00,36.0,26.0,-100.00,WNW,287,11.0,17.0,66,0.00,,,0.00,32.000000,,2013-10-27 14:22:00,
2013-10-27 09:32:00,36.0,26.0,-100.00,WNW,287,11.0,17.0,66,0.00,,,0.00,32.000000,,2013-10-27 14:32:00,
2013-10-27 09:42:00,36.0,26.0,-100.00,WNW,287,11.0,17.0,66,0.00,,,0.00,32.000000,,2013-10-27 14:42:00,
2013-10-27 09:52:00,36.0,26.0,-100.00,WNW,287,11.0,17.0,66,0.00,,,0.00,32.000000,,2013-10-27 14:52:00,
2013-10-27 10:44:00,41.0,29.0,-100.00,WNW,298,11.0,14.0,63,0.00,,,0.00,232.000000,,2013-10-27 15:44:00,
2013-10-27 10:54:00,41.0,29.0,-100.00,WNW,298,11.0,14.0,63,0.00,,,0.00,232.000000,,2013-10-27 15:54:00,
2013-10-27 11:24:00,42.0,30.0,-100.00,NNW,348,12.0,16.0,62,0.00,,,0.00,407.000000,,2013-10-27 16:24:00,
2013-10-27 11:33:00,42.0,30.0,-100.00,NNW,348,12.0,16.0,62,0.00,,,0.00,407.000000,,2013-10-27 16:33:00,
2013-10-27 11:43:00,42.0,30.0,-100.00,NNW,348,12.0,16.0,62,0.00,,,0.00,407.000000,,2013-10-27 16:43:00,
2013-10-27 11:53:00,42.0,30.0,-100.00,NNW,348,12.0,16.0,62,0.00,,,0.00,407.000000,,2013-10-27 16:53:00,
2013-10-27 12:22:00,44.0,31.0,-100.00,NE,36,15.0,20.0,59,0.00,,,0.00,525.000000,,2013-10-27 17:22:00,
2013-10-27 12:34:00,44.0,31.0,-100.00,NE,36,15.0,20.0,59,0.00,,,0.00,525.000000,,2013-10-27 17:34:00,
2013-10-27 12:43:00,44.0,31.0,-100.00,NE,36,15.0,20.0,59,0.00,,,0.00,525.000000,,2013-10-27 17:43:00,
2013-10-27 12:53:00,44.0,31.0,-100.00,NE,36,15.0,20.0,59,0.00,,,0.00,525.000000,,2013-10-27 17:53:00,
2013-10-27 13:22:00,45.0,32.0,-100.00,NE,34,18.0,23.0,59,0.00,,,0.00,586.000000,,2013-10-27 18:22:00,
2013-10-27 13:32:00,45.0,32.0,-100.00,NE,34,18.0,23.0,59,0.00,,,0.00,586.000000,,2013-10-27 18:32:00,
2013-10-27 13:43:00,45.0,32.0,-100.00,NE,34,18.0,23.0,59,0.00,,,0.00,586.000000,,2013-10-27 18:43:00,
2013-10-27 13:52:00,45.0,32.0,-100.00,NE,34,18.0,23.0,59,0.00,,,0.00,586.000000,,2013-10-27 18:52:00,
2013-10-27 14:22:00,47.0,31.0,-100.00,NNE,28,19.0,26.0,54,0.00,,,0.00,583.000000,,2013-10-27 19:22:00,
2013-10-27 14:32:00,47.0,31.0,-100.00,NNE,28,19.0,26.0,54,0.00,,,0.00,583.000000,,2013-10-27 19:32:00,
2013-10-27 14:42:00,47.0,31.0,-100.00,NNE,28,19.0,26.0,54,0.00,,,0.00,583.000000,,2013-10-27 19:42:00,
2013-10-27 14:52:00,47.0,31.0,-100.00,NNE,28,19.0,26.0,54,0.00,,,0.00,583.000000,,2013-10-27 19:52:00,
2013-10-27 15:22:00,45.0,29.0,-100.00,NNE,30,19.0,28.0,54,0.00,,,0.00,524.000000,,2013-10-27 20:22:00,
2013-10-27 15:32:00,45.0,29.0,-100.00,NNE,30,19.0,28.0,54,0.00,,,0.00,524.000000,,2013-10-27 20:32:00,
2013-10-27 15:43:00,45.0,29.0,-100.00,NNE,30,19.0,28.0,54,0.00,,,0.00,524.000000,,2013-10-27 20:43:00,
2013-10-27 15:52:00,45.0,29.0,-100.00,NNE,30,19.0,28.0,54,0.00,,,0.00,524.000000,,2013-10-27 20:52:00,
2013-10-27 16:21:00,44.0,28.0,-100.00,NE,37,20.0,27.0,54,0.00,,,0.00,410.000000,,2013-10-27 21:21:00,
2013-10-27 16:34:00,44.0,28.0,-100.00,NE,37,20.0,27.0,54,0.00,,,0.00,410.000000,,2013-10-27 21:34:00,
2013-10-27 16:43:00,44.0,28.0,-100.00,NE,37,20.0,27.0,54,0.00,,,0.00,410.000000,,2013-10-27 21:43:00,
2013-10-27 16:54:00,44.0,28.0,-100.00,NE,37,20.0,27.0,54,0.00,,,0.00,410.000000,,2013-10-27 21:54:00,
2013-10-27 17:24:00,42.0,28.0,-100.00,NE,40,21.0,28.0,57,0.00,,,0.00,259.000000,,2013-10-27 22:24:00,
2013-10-27 17:33:00,42.0,28.0,-100.00,NE,40,21.0,28.0,57,0.00,,,0.00,259.000000,,2013-10-27 22:33:00,
2013-10-27 17:43:00,42.0,28.0,-100.00,NE,40,21.0,28.0,57,0.00,,,0.00,259.000000,,2013-10-27 22:43:00,
2013-10-27 17:54:00,42.0,28.0,-100.00,NE,40,21.0,28.0,57,0.00,,,0.00,259.000000,,2013-10-27 22:54:00,
2013-10-27 18:22:00,40.0,28.0,-100.00,NE,37,18.0,27.0,62,0.00,,,0.00,93.000000,,2013-10-27 23:22:00,
2013-10-27 18:33:00,40.0,28.0,-100.00,NE,37,18.0,27.0,62,0.00,,,0.00,93.000000,,2013-10-27 23:33:00,
2013-10-27 18:42:00,40.0,28.0,-100.00,NE,37,18.0,27.0,62,0.00,,,0.00,93.000000,,2013-10-27 23:42:00,
2013-10-27 18:52:00,40.0,28.0,-100.00,NE,37,18.0,27.0,62,0.00,,,0.00,93.000000,,2013-10-27 23:52:00,
2013-10-27 19:22:00,36.0,27.0,-100.00,NE,39,19.0,26.0,69,0.00,,,0.00,2.000000,,2013-10-28 00:22:00,
2013-10-27 19:32:00,36.0,27.0,-100.00,NE,39,19.0,26.0,69,0.00,,,0.00,2.000000,,2013-10-28 00:32:00,
2013-10-27 19:43:00,36.0,27.0,-100.00,NE,39,19.0,26.0,69,0.00,,,0.00,2.000000,,2013-10-28 00:43:00,
2013-10-27 19:52:00,36.0,27.0,-100.00,NE,39,19.0,26.0,69,0.00,,,0.00,2.000000,,2013-10-28 00:52:00,
2013-10-27 20:21:00,34.0,28.0,-100.00,NE,38,18.0,27.0,80,0.00,,,0.00,0.000000,,2013-10-28 01:21:00,
2013-10-27 20:32:00,34.0,28.0,-100.00,NE,38,18.0,27.0,80,0.00,,,0.00,0.000000,,2013-10-28 01:32:00,
2013-10-27 20:42:00,34.0,28.0,-100.00,NE,38,18.0,27.0,80,0.00,,,0.00,0.000000,,2013-10-28 01:42:00,
2013-10-27 20:52:00,34.0,28.0,-100.00,NE,38,18.0,27.0,80,0.00,,,0.00,0.000000,,2013-10-28 01:52:00,
2013-10-27 21:22:00,33.0,30.0,-100.00,NE,42,17.0,26.0,87,0.00,,,0.00,0.000000,,2013-10-28 02:22:00,
2013-10-27 21:32:00,33.0,30.0,-100.00,NE,42,17.0,26.0,87,0.00,,,0.00,0.000000,,2013-10-28 02:32:00,
2013-10-27 21:42:00,33.0,30.0,-100.00,NE,42,17.0,26.0,87,0.00,,,0.00,0.000000,,2013-10-28 02:42:00,
2013-10-27 21:53:00,33.0,30.0,-100.00,NE,42,17.0,26.0,87,0.00,,,0.00,0.000000,,2013-10-28 02:53:00,
2013-10-27 22:22:00,31.0,28.0,-100.00,NE,41,16.0,23.0,87,0.00,,,0.00,0.000000,,2013-10-28 03:22:00,
2013-10-27 22:34:00,31.0,28.0,-100.00,NE,41,16.0,23.0,87,0.00,,,0.00,0.000000,,2013-10-28 03:34:00,
2013-10-27 22:44:00,31.0,28.0,-100.00,NE,41,16.0,23.0,87,0.00,,,0.00,0.000000,,2013-10-28 03:44:00,
2013-10-27 22:54:00,31.0,28.0,-100.00,NE,41,16.0,23.0,87,0.00,,,0.00,0.000000,,2013-10-28 03:54:00,
2013-10-27 23:23:00,30.0,28.0,-100.00,NE,45,17.0,24.0,94,0.00,,,0.00,0.000000,,2013-10-28 04:23:00,
2013-10-27 23:34:00,30.0,28.0,-100.00,NE,45,17.0,24.0,94,0.00,,,0.00,0.000000,,2013-10-28 04:34:00,
2013-10-27 23:43:00,30.0,28.0,-100.00,NE,45,17.0,24.0,94,0.00,,,0.00,0.000000,,2013-10-28 04:43:00,
2013-10-27 23:53:00,30.0,28.0,-100.00,NE,45,17.0,24.0,94,0.00,,,0.00,0.000000,,2013-10-28 04:53:00,